Chamberlain, SD

8:59 PM CST on January 21, 2018 (GMT -0600)
Chamberlain

Weather History for K9V9 - January, 2014

Change the Weather History Date:

Tuesday, January 14, 2014

  Actual Average Record
Temperature  
Mean Temperature 29 °F -  
Max Temperature 37 °F 26 °F 61 °F (2006)
Min Temperature 16 °F 7 °F -14 °F (2009)
Degree Days  
Heating Degree Days 36    
Moisture  
Dew Point 13 °F    
Average Humidity 53    
Maximum Humidity 73    
Minimum Humidity 38    
Precipitation  
Precipitation 0.00 in - - ()
Sea Level Pressure  
Sea Level Pressure 30.17 in    
Wind  
Wind Speed 20 mph (NNW)    
Max Wind Speed 28 mph    
Max Gust Speed 45 mph    
Averages and records for this station are not official NWS values.
T = Trace of Precipitation, MM = Missing Value Source: NWS Daily Summary

Daily Weather History Graph

Daily Weather History Graph

Search for Another Location

Airport or City:

Trip Planner

Search our weather history database for the weather conditions in past years. The results will help you decide how hot, cold, wet, or windy it might be!

Date:

Astronomy

Jan. 14, 2014 Rise Set
Actual Time 8:08 AM CST 5:24 PM CST
Civil Twilight 7:36 AM CST 5:56 PM CST
Nautical Twilight 7:01 AM CST 6:32 PM CST
Astronomical Twilight 6:26 AM CST 7:06 PM CST
Moon 4:32 PM CST (1/14) 6:43 AM CST (1/14)
Length of Visible Light 10h 19m
Length of Day
9h 15m
Waxing Gibbous, 98% of the Moon is Illuminated
Jan 14
Waxing Gibbous
Jan 15
Full
Jan 23
Last Quarter
Jan 30
New
Feb 6
First Quarter

Hourly Weather History & Observations

Time (CST) Temp. Windchill Dew Point Humidity Pressure Visibility Wind Dir Wind Speed Gust Speed Precip Events Conditions
12:52 AM 37.9 °F 27.9 °F 30.0 °F 73% 29.82 in - NW 19.6 mph 28.8 mph N/A   Unknown
1:52 AM 36.0 °F 24.2 °F 24.1 °F 62% 29.85 in - NNW 24.2 mph 38.0 mph N/A   Unknown
2:52 AM 34.0 °F 21.0 °F 21.0 °F 59% 29.92 in - NNW 26.5 mph 38.0 mph N/A   Unknown
3:52 AM 32.0 °F 19.8 °F 19.9 °F 61% 29.95 in - NNW 20.7 mph 36.8 mph N/A   Unknown
4:52 AM 30.0 °F 17.5 °F 18.0 °F 61% 30.00 in - NNW 19.6 mph 38.0 mph N/A   Unknown
5:52 AM 28.9 °F 16.5 °F 17.1 °F 61% 30.03 in - NNW 18.4 mph 29.9 mph N/A   Unknown
6:52 AM 28.9 °F 14.8 °F 14.0 °F 54% 30.05 in - NNW 24.2 mph 44.9 mph N/A   Unknown
7:52 AM 28.0 °F 14.6 °F 14.0 °F 56% 30.09 in - NNW 20.7 mph 35.7 mph N/A   Unknown
8:52 AM 28.0 °F 13.3 °F 12.9 °F 53% 30.13 in - NNW 25.3 mph 35.7 mph N/A   Unknown
9:52 AM 28.0 °F 13.3 °F 12.0 °F 51% 30.18 in - NNW 25.3 mph 42.6 mph N/A   Unknown
10:52 AM 28.0 °F 13.3 °F 10.0 °F 47% 30.22 in - North 25.3 mph 35.7 mph N/A   Unknown
11:52 AM 28.9 °F 14.3 °F 9.0 °F 43% 30.22 in - NNW 26.5 mph 34.5 mph N/A   Unknown
12:52 PM 30.0 °F 17.2 °F 9.0 °F 41% 30.22 in - NNW 20.7 mph 29.9 mph N/A   Unknown
1:52 PM 30.0 °F 15.4 °F 7.0 °F 38% 30.23 in - North 27.6 mph 35.7 mph N/A   Unknown
2:52 PM 30.0 °F 17.9 °F 8.1 °F 40% 30.26 in - NNW 18.4 mph 31.1 mph N/A   Unknown
3:52 PM 30.0 °F 18.7 °F 7.0 °F 38% 30.28 in - NNW 16.1 mph 31.1 mph N/A   Unknown
4:52 PM 28.0 °F 16.5 °F 9.0 °F 45% 30.30 in - NNW 15.0 mph - N/A   Unknown
5:52 PM 27.0 °F 15.6 °F 10.0 °F 49% 30.31 in - NNW 13.8 mph 23.0 mph N/A   Unknown
6:52 PM 25.0 °F 14.8 °F 9.0 °F 51% 30.30 in - North 10.4 mph 21.9 mph N/A   Unknown
7:52 PM 24.1 °F 13.1 °F 10.0 °F 55% 30.32 in - North 11.5 mph - N/A   Unknown
8:52 PM 23.0 °F 11.1 °F 10.0 °F 58% 30.33 in - North 12.7 mph 20.7 mph N/A   Unknown
9:52 PM 21.0 °F 12.4 °F 10.0 °F 63% 30.32 in - North 6.9 mph - N/A   Unknown
10:52 PM 21.0 °F 14.6 °F 7.0 °F 55% 30.34 in - North 4.6 mph - N/A   Unknown
11:52 PM 16.0 °F 6.3 °F 7.0 °F 68% 30.32 in - WNW 6.9 mph - N/A   Unknown